GW4373 Weather Reports


time (UTC)temp
C
wind
direction
speed
KPH
gust
KPH
rain 1hr
cm
rain 24hr
cm
rain mn
cm
humidity
%
barometer
mb
20260906221330 36 162 0.0 0.0 0.00 0.00 0.00 36 1008.2
20260906220825 35 240 0.0 0.0 0.00 0.00 0.00 37 1008.5
20260906220321 38 204 1.6 1.6 0.00 0.00 0.00 36 1008.5
20260906215819 38 288 0.0 0.0 0.00 0.00 0.00 36 1008.5
20260906215314 37 216 0.0 0.0 0.00 0.00 0.00 36 1008.2
20260906214812 36 222 3.2 3.2 0.00 0.00 0.00 35 1008.9
20260906214307 36 84 0.0 0.0 0.00 0.00 0.00 35 1008.9
20260906213806 37 180 0.0 0.0 0.00 0.00 0.00 34 1008.5
20260906213301 36 54 0.0 0.0 0.00 0.00 0.00 36 1008.9
20260906212758 36 148 0.0 0.0 0.00 0.00 0.00 35 1008.9
20260906212254 35 36 0.0 0.0 0.00 0.00 0.00 37 1008.9
20260906211753 36 204 3.2 3.2 0.00 0.00 0.00 36 1008.9
20260906211248 36 59 0.0 0.0 0.00 0.00 0.00 36 1009.2
20260906210743 36 210 0.0 0.0 0.00 0.00 0.00 35 1009.2
20260906210238 37 204 0.0 0.0 0.00 0.00 0.00 36 1009.2
20260906205733 36 234 0.0 0.0 0.00 0.00 0.00 37 1009.6
20260906205230 36 216 0.0 0.0 0.00 0.00 0.00 37 1009.2
20260906204730 36 216 3.2 3.2 0.00 0.00 0.00 34 1009.6
20260906204229 36 252 0.0 0.0 0.00 0.00 0.00 35 1009.6
20260906203729 37 252 3.2 3.2 0.00 0.00 0.00 34 1009.9
20260906203224 37 204 1.6 1.6 0.00 0.00 0.00 35 1009.6
20260906202721 38 234 1.6 1.6 0.00 0.00 0.00 34 1009.9
20260906202220 38 60 3.2 3.2 0.00 0.00 0.00 35 1009.6
20260906201715 38 271 1.6 1.6 0.00 0.00 0.00 35 1009.9
20260906201215 37 180 0.0 0.0 0.00 0.00 0.00 35 1009.9
20260906200711 37 192 0.0 0.0 0.00 0.00 0.00 36 1009.9
20260906200206 37 210 4.8 4.8 0.00 0.00 0.00 35 1009.9
20260906195701 38 204 3.2 3.2 0.00 0.00 0.00 36 1009.9
20260906195158 37 216 0.0 0.0 0.00 0.00 0.00 35 1010.2
20260906194654 36 210 4.8 4.8 0.00 0.00 0.00 35 1010.2
20260906194148 37 238 3.2 3.2 0.00 0.00 0.00 35 1010.2
20260906193644 36 282 0.0 0.0 0.00 0.00 0.00 36 1010.2
20260906193139 36 186 3.2 3.2 0.00 0.00 0.00 38 1010.6
20260906192635 35 6 0.0 0.0 0.00 0.00 0.00 35 1010.2
20260906192134 37 102 0.0 0.0 0.00 0.00 0.00 36 1010.6
20260906191629 37 198 0.0 0.0 0.00 0.00 0.00 35 1010.6
20260906191128 36 102 0.0 0.0 0.00 0.00 0.00 36 1010.6
20260906190622 36 204 3.2 3.2 0.00 0.00 0.00 36 1010.2
20260906190117 36 210 0.0 0.0 0.00 0.00 0.00 36 1010.6
20260906185616 36 204 3.2 3.2 0.00 0.00 0.00 37 1010.6
20260906185115 35 354 0.0 0.0 0.00 0.00 0.00 38 1010.9
20260906184610 35 96 3.2 3.2 0.00 0.00 0.00 40 1010.9
20260906184105 36 204 0.0 0.0 0.00 0.00 0.00 38 1010.6
20260906183601 36 204 0.0 0.0 0.00 0.00 0.00 38 1010.6
20260906183057 36 186 0.0 0.0 0.00 0.00 0.00 38 1011.2
20260906182552 36 180 0.0 0.0 0.00 0.00 0.00 38 1011.2
20260906182048 35 59 0.0 0.0 0.00 0.00 0.00 41 1010.9
20260906181543 34 84 1.6 1.6 0.00 0.00 0.00 41 1010.9
20260906181039 35 210 0.0 0.0 0.00 0.00 0.00 40 1011.2
20260906180533 35 234 3.2 3.2 0.00 0.00 0.00 40 1011.6
20260906180027 35 222 0.0 0.0 0.00 0.00 0.00 40 1011.6
20260906175526 34 214 0.0 0.0 0.00 0.00 0.00 41 1011.6
20260906175026 34 85 0.0 0.0 0.00 0.00 0.00 41 1011.6
20260906174524 34 132 0.0 0.0 0.00 0.00 0.00 42 1012.0
20260906174019 35 254 0.0 0.0 0.00 0.00 0.00 40 1012.0
20260906173514 36 132 0.0 0.0 0.00 0.00 0.00 41 1012.0
20260906173010 36 192 0.0 0.0 0.00 0.00 0.00 42 1011.6
20260906172505 35 204 1.6 1.6 0.00 0.00 0.00 43 1012.0
20260906172000 34 36 3.2 3.2 0.00 0.00 0.00 43 1012.0
20260906171454 34 48 3.2 3.2 0.00 0.00 0.00 43 1011.6
20260906170950 34 84 0.0 0.0 0.00 0.00 0.00 44 1012.0
20260906170446 34 198 0.0 0.0 0.00 0.00 0.00 42 1012.0
20260906165943 34 73 3.2 3.2 0.00 0.00 0.00 46 1012.4
20260906165442 33 186 4.8 4.8 0.00 0.00 0.00 44 1012.4
20260906164937 33 66 0.0 0.0 0.00 0.00 0.00 44 1012.4
20260906164436 33 40 0.0 0.0 0.00 0.00 0.00 45 1012.4
20260906163932 33 222 0.0 0.0 0.00 0.00 0.00 45 1012.4
20260906163428 33 222 0.0 0.0 0.00 0.00 0.00 45 1012.7
20260906162926 33 260 0.0 0.0 0.00 0.00 0.00 44 1012.4
20260906162419 33 204 0.0 0.0 0.00 0.00 0.00 45 1012.4
20260906161914 35 198 0.0 0.0 0.00 0.00 0.00 43 1012.4
20260906161414 33 228 0.0 0.0 0.00 0.00 0.00 44 1012.4
20260906160913 33 72 0.0 0.0 0.00 0.00 0.00 46 1012.4
20260906160406 33 54 0.0 0.0 0.00 0.00 0.00 47 1012.4
20260906155904 33 222 0.0 0.0 0.00 0.00 0.00 45 1012.4
20260906155358 32 58 0.0 0.0 0.00 0.00 0.00 49 1012.4
20260906154855 33 66 0.0 0.0 0.00 0.00 0.00 47 1012.4
20260906154349 33 204 3.2 3.2 0.00 0.00 0.00 49 1012.0
20260906153848 32 216 0.0 0.0 0.00 0.00 0.00 50 1012.0
20260906153347 33 52 0.0 0.0 0.00 0.00 0.00 50 1012.0
20260906152843 32 24 4.8 4.8 0.00 0.00 0.00 50 1012.0
20260906152342 32 6 0.0 0.0 0.00 0.00 0.00 53 1012.0
20260906151842 32 46 0.0 0.0 0.00 0.00 0.00 53 1012.0
20260906151338 32 294 0.0 0.0 0.00 0.00 0.00 54 1011.6
20260906150833 32 204 0.0 0.0 0.00 0.00 0.00 54 1011.6
20260906150329 32 48 3.2 3.2 0.00 0.00 0.00 55 1012.0
20260906145828 32 0 0.0 0.0 0.00 0.00 0.00 56 1011.6
20260906145326 31 42 0.0 0.0 0.00 0.00 0.00 57 1011.6
20260906144822 31 58 0.0 0.0 0.00 0.00 0.00 56 1011.6
20260906144317 31 60 0.0 0.0 0.00 0.00 0.00 56 1011.6
20260906143816 31 66 0.0 0.0 0.00 0.00 0.00 60 1011.6
20260906143313 30 136 0.0 0.0 0.00 0.00 0.00 56 1011.6
20260906142808 30 136 1.6 1.6 0.00 0.00 0.00 61 1012.0
20260906142306 30 65 0.0 0.0 0.00 0.00 0.00 63 1011.6
20260906141802 30 70 0.0 0.0 0.00 0.00 0.00 65 1012.0
20260906141257 28 71 0.0 0.0 0.00 0.00 0.00 65 1011.6
20260906140755 30 78 0.0 0.0 0.00 0.00 0.00 66 1012.0
20260906140251 30 168 0.0 0.0 0.00 0.00 0.00 64 1012.0
20260906135748 30 176 0.0 0.0 0.00 0.00 0.00 61 1012.0
20260906135244 29 198 0.0 0.0 0.00 0.00 0.00 65 1012.0
20260906134739 29 214 0.0 0.0 0.00 0.00 0.00 69 1011.6
20260906134234 29 214 0.0 0.0 0.00 0.00 0.00 72 1012.0
20260906133730 29 59 0.0 0.0 0.00 0.00 0.00 72 1012.0
20260906133225 28 59 0.0 0.0 0.00 0.00 0.00 76 1012.0
20260906132720 28 60 0.0 0.0 0.00 0.00 0.00 77 1012.4
20260906132216 27 60 0.0 0.0 0.00 0.00 0.00 80 1012.0
20260906131711 27 60 0.0 0.0 0.00 0.00 0.00 81 1012.0
20260906131206 27 60 0.0 0.0 0.00 0.00 0.00 82 1012.0
20260906130701 26 60 0.0 0.0 0.00 0.00 0.00 83 1012.0
20260906130157 25 60 0.0 0.0 0.00 0.00 0.00 84 1011.6
20260906125655 25 60 0.0 0.0 0.00 0.00 0.00 86 1011.6
20260906125153 24 60 0.0 0.0 0.00 0.00 0.00 89 1011.6
20260906124649 24 60 0.0 0.0 0.00 0.00 0.00 89 1011.6
20260906124144 24 60 0.0 0.0 0.00 0.00 0.00 91 1011.6
20260906123643 24 60 0.0 0.0 0.00 0.00 0.00 91 1011.6
20260906123139 23 60 0.0 0.0 0.00 0.00 0.00 90 1011.6
20260906122637 23 60 0.0 0.0 0.00 0.00 0.00 90 1011.6
20260906122133 23 60 0.0 0.0 0.00 0.00 0.00 90 1011.6
20260906121629 23 60 0.0 0.0 0.00 0.00 0.00 90 1011.6
20260906121126 23 60 0.0 0.0 0.00 0.00 0.00 89 1011.2
20260906120621 23 60 0.0 0.0 0.00 0.00 0.00 88 1011.2
20260906120118 23 60 0.0 0.0 0.00 0.00 0.00 88 1011.2
20260906115612 23 60 0.0 0.0 0.00 0.00 0.00 88 1011.2
20260906115108 23 60 0.0 0.0 0.00 0.00 0.00 89 1011.2
20260906114601 23 60 0.0 0.0 0.00 0.00 0.00 88 1011.2
20260906114057 23 60 0.0 0.0 0.00 0.00 0.00 88 1011.2
20260906113556 23 60 0.0 0.0 0.00 0.00 0.00 88 1011.2
20260906113051 24 60 0.0 0.0 0.00 0.00 0.00 88 1010.9
20260906112545 24 60 0.0 0.0 0.00 0.00 0.00 87 1010.9
20260906112042 23 60 0.0 0.0 0.00 0.00 0.00 87 1010.9
20260906111542 23 60 0.0 0.0 0.00 0.00 0.00 87 1010.9
20260906111037 24 60 0.0 0.0 0.00 0.00 0.00 87 1010.9
20260906110536 24 60 0.0 0.0 0.00 0.00 0.00 87 1010.9
20260906110036 24 60 0.0 0.0 0.00 0.00 0.00 87 1010.6
20260906105531 24 60 0.0 0.0 0.00 0.00 0.00 86 1010.6
20260906105027 24 60 0.0 0.0 0.00 0.00 0.00 86 1010.6
20260906104525 24 60 0.0 0.0 0.00 0.00 0.00 86 1010.6
20260906104020 24 60 0.0 0.0 0.00 0.00 0.00 86 1010.6
20260906103518 24 60 0.0 0.0 0.00 0.00 0.00 86 1010.6
20260906103014 24 60 0.0 0.0 0.00 0.00 0.00 85 1010.6
20260906102514 25 60 0.0 0.0 0.00 0.00 0.00 85 1010.6
20260906102014 25 60 0.0 0.0 0.00 0.00 0.00 84 1010.6
20260906101509 25 60 0.0 0.0 0.00 0.00 0.00 84 1010.6
20260906101004 25 60 0.0 0.0 0.00 0.00 0.00 85 1010.6
20260906100459 25 60 0.0 0.0 0.00 0.00 0.00 85 1010.6
20260906095954 25 60 0.0 0.0 0.00 0.00 0.00 84 1010.2
20260906095449 25 60 0.0 0.0 0.00 0.00 0.00 85 1010.6
20260906094944 25 60 0.0 0.0 0.00 0.00 0.00 84 1010.6
20260906094443 25 60 0.0 0.0 0.00 0.00 0.00 83 1010.6
20260906093940 25 60 0.0 0.0 0.00 0.00 0.00 83 1010.6
20260906093436 25 60 0.0 0.0 0.00 0.00 0.00 83 1010.6
20260906092936 25 60 0.0 0.0 0.00 0.00 0.00 83 1010.6
20260906092435 25 60 0.0 0.0 0.00 0.00 0.00 82 1010.2
20260906091931 25 60 0.0 0.0 0.00 0.00 0.00 82 1010.2
20260906091426 25 60 0.0 0.0 0.00 0.00 0.00 82 1009.9
20260906090923 25 60 0.0 0.0 0.00 0.00 0.00 82 1010.2
20260906090418 25 60 0.0 0.0 0.00 0.00 0.00 81 1009.9
20260906085912 26 60 0.0 0.0 0.00 0.00 0.00 81 1009.9
20260906085406 26 60 0.0 0.0 0.00 0.00 0.00 81 1009.9
20260906084905 26 60 0.0 0.0 0.00 0.00 0.00 80 1009.9
20260906084400 26 60 0.0 0.0 0.00 0.00 0.00 79 1009.9
20260906083854 26 60 0.0 0.0 0.00 0.00 0.00 79 1009.9
20260906083350 26 60 0.0 0.0 0.00 0.00 0.00 79 1009.9
20260906082849 26 60 0.0 0.0 0.00 0.00 0.00 79 1010.2
20260906082344 26 60 0.0 0.0 0.00 0.00 0.00 79 1010.2
20260906081841 26 60 0.0 0.0 0.00 0.00 0.00 79 1009.9
20260906081336 26 60 0.0 0.0 0.00 0.00 0.00 79 1009.9
20260906080832 26 59 0.0 0.0 0.00 0.00 0.00 78 1009.9
20260906080328 26 60 0.0 0.0 0.00 0.00 0.00 78 1009.9
20260906075827 26 60 0.0 0.0 0.00 0.00 0.00 78 1009.9
20260906075327 26 60 0.0 0.0 0.00 0.00 0.00 78 1009.9
20260906074823 26 60 0.0 0.0 0.00 0.00 0.00 78 1009.9
20260906074322 26 60 0.0 0.0 0.00 0.00 0.00 78 1009.9
20260906073821 26 60 0.0 0.0 0.00 0.00 0.00 78 1009.9
20260906073322 26 60 0.0 0.0 0.00 0.00 0.00 78 1010.2
20260906072819 26 60 0.0 0.0 0.00 0.00 0.00 78 1010.2
20260906072314 26 60 0.0 0.0 0.00 0.00 0.00 78 1010.2
20260906071810 26 59 0.0 0.0 0.00 0.00 0.00 78 1010.2
20260906071310 26 60 0.0 0.0 0.00 0.00 0.00 78 1010.2
20260906070806 26 60 0.0 0.0 0.00 0.00 0.00 77 1010.2
20260906070302 26 60 0.0 0.0 0.00 0.00 0.00 77 1010.2
20260906065755 26 60 0.0 0.0 0.00 0.00 0.00 77 1010.6
20260906065251 26 60 0.0 0.0 0.00 0.00 0.00 77 1010.2
20260906064746 26 60 0.0 0.0 0.00 0.00 0.00 76 1010.6
20260906064242 26 60 0.0 0.0 0.00 0.00 0.00 76 1010.2
20260906063737 27 60 0.0 0.0 0.00 0.00 0.00 75 1010.2
20260906063232 27 60 0.0 0.0 0.00 0.00 0.00 76 1010.2
20260906062727 27 60 0.0 0.0 0.00 0.00 0.00 76 1010.2
20260906062226 27 60 0.0 0.0 0.00 0.00 0.00 76 1010.2
20260906061723 27 60 0.0 0.0 0.00 0.00 0.00 75 1010.2
20260906061219 27 60 0.0 0.0 0.00 0.00 0.00 75 1010.2
20260906060714 27 60 0.0 0.0 0.00 0.00 0.00 74 1010.2
20260906060212 27 60 0.0 0.0 0.00 0.00 0.00 74 1009.9
20260906055707 27 60 0.0 0.0 0.00 0.00 0.00 74 1010.2
20260906055202 27 60 0.0 0.0 0.00 0.00 0.00 74 1010.2
20260906054657 27 60 0.0 0.0 0.00 0.00 0.00 73 1010.2
20260906054152 27 60 0.0 0.0 0.00 0.00 0.00 73 1010.2
20260906053649 28 60 0.0 0.0 0.00 0.00 0.00 72 1010.2
20260906053144 28 60 0.0 0.0 0.00 0.00 0.00 71 1010.6
20260906052639 28 60 0.0 0.0 0.00 0.00 0.00 71 1010.6
20260906052136 28 60 0.0 0.0 0.00 0.00 0.00 70 1010.6
20260906051632 28 60 0.0 0.0 0.00 0.00 0.00 70 1010.6
20260906051132 28 60 0.0 0.0 0.00 0.00 0.00 70 1010.2
20260906050627 28 60 0.0 0.0 0.00 0.00 0.00 70 1010.2
20260906050122 28 60 0.0 0.0 0.00 0.00 0.00 70 1010.2
20260906045621 28 60 0.0 0.0 0.00 0.00 0.00 70 1010.2
20260906045116 28 60 0.0 0.0 0.00 0.00 0.00 69 1010.2
20260906044612 28 60 0.0 0.0 0.00 0.00 0.00 68 1010.2
20260906044107 28 59 0.0 0.0 0.00 0.00 0.00 68 1010.2
20260906043603 29 59 0.0 0.0 0.00 0.00 0.00 67 1010.6
20260906043059 29 60 0.0 0.0 0.00 0.00 0.00 67 1010.6
20260906042557 29 60 0.0 0.0 0.00 0.00 0.00 66 1010.2
20260906042051 29 60 0.0 0.0 0.00 0.00 0.00 66 1010.2
20260906041548 29 60 0.0 0.0 0.00 0.00 0.00 65 1010.2
20260906041042 29 60 0.0 0.0 0.00 0.00 0.00 65 1010.2
20260906040538 30 59 0.0 0.0 0.00 0.00 0.00 64 1010.2
20260906040033 30 60 0.0 0.0 0.00 0.00 0.00 63 1010.2
20260906035528 30 59 0.0 0.0 0.00 0.00 0.00 62 1010.2
20260906035025 30 59 0.0 0.0 0.00 0.00 0.00 61 1010.2
20260906034524 30 59 0.0 0.0 0.00 0.00 0.00 61 1010.2
20260906034019 30 59 0.0 0.0 0.00 0.00 0.00 60 1010.2
20260906033514 31 198 0.0 0.0 0.00 0.00 0.00 60 1009.9
20260906033010 31 182 0.0 0.0 0.00 0.00 0.00 60 1010.2
20260906032507 31 216 0.0 0.0 0.00 0.00 0.00 59 1010.2
20260906032006 31 220 0.0 0.0 0.00 0.00 0.00 59 1010.2
20260906031501 31 210 0.0 0.0 0.00 0.00 0.00 58 1010.2
20260906030951 31 204 0.0 0.0 0.00 0.00 0.00 58 1010.6
20260906030445 31 287 0.0 0.0 0.00 0.00 0.00 58 1010.2
20260906025939 31 204 0.0 0.0 0.00 0.00 0.00 57 1010.2
20260906025434 31 164 0.0 0.0 0.00 0.00 0.00 56 1010.2
20260906024933 31 171 0.0 0.0 0.00 0.00 0.00 56 1009.9
20260906024432 32 200 0.0 0.0 0.00 0.00 0.00 55 1009.9
20260906023927 32 306 0.0 0.0 0.00 0.00 0.00 54 1009.9
20260906023424 32 225 0.0 0.0 0.00 0.00 0.00 54 1009.9
20260906022924 32 222 3.2 3.2 0.00 0.00 0.00 54 1009.9
20260906022419 32 180 0.0 0.0 0.00 0.00 0.00 54 1009.6
20260906021914 32 354 1.6 1.6 0.00 0.00 0.00 53 1009.2
20260906021415 32 198 0.0 0.0 0.00 0.00 0.00 53 1009.6
20260906020914 32 240 0.0 0.0 0.00 0.00 0.00 55 1009.2
20260906020409 32 252 0.0 0.0 0.00 0.00 0.00 57 1009.2
20260906015903 31 247 0.0 0.0 0.00 0.00 0.00 58 1009.2
20260906015402 31 199 0.0 0.0 0.00 0.00 0.00 57 1009.2
20260906014856 31 199 0.0 0.0 0.00 0.00 0.00 54 1008.9
20260906014350 31 199 0.0 0.0 0.00 0.00 0.00 53 1008.9
20260906013846 31 199 0.0 0.0 0.00 0.00 0.00 50 1008.5
20260906013342 31 199 0.0 0.0 0.00 0.00 0.00 50 1008.9
20260906012837 32 199 0.0 0.0 0.00 0.00 0.00 49 1008.9
20260906012332 32 199 0.0 0.0 0.00 0.00 0.00 48 1008.9
20260906011832 32 199 0.0 0.0 0.00 0.00 0.00 47 1008.5
20260906011327 32 199 0.0 0.0 0.00 0.00 0.00 46 1008.5
20260906010823 32 199 0.0 0.0 0.00 0.00 0.00 45 1008.5
20260906010319 33 198 0.0 0.0 0.00 0.00 0.00 45 1008.2
20260906005814 33 198 0.0 0.0 0.00 0.00 0.00 43 1008.5
20260906005313 34 198 0.0 0.0 0.00 0.00 0.00 43 1008.2
20260906004812 34 198 0.0 0.0 0.00 0.00 0.00 41 1008.2
20260906004307 35 198 0.0 0.0 0.00 0.00 0.00 41 1008.5
20260906003802 35 198 0.0 0.0 0.00 0.00 0.00 40 1008.5
20260906003257 36 198 0.0 0.0 0.00 0.00 0.00 39 1008.5
20260906002753 36 198 0.0 0.0 0.00 0.00 0.00 39 1008.2
20260906002252 36 198 0.0 0.0 0.00 0.00 0.00 39 1008.2
20260906001748 36 204 0.0 0.0 0.00 0.00 0.00 39 1008.2
20260906001242 36 202 0.0 0.0 0.00 0.00 0.00 38 1008.2
20260906000738 36 204 0.0 0.0 0.00 0.00 0.00 39 1008.2
20260906000234 36 204 0.0 0.0 0.00 0.00 0.00 39 1008.2
20260905235727 36 204 0.0 0.0 0.00 0.00 0.00 39 1008.5
20260905235221 36 216 0.0 0.0 0.00 0.00 0.00 38 1008.2
20260905234717 36 222 0.0 0.0 0.00 0.00 0.00 38 1008.2
20260905234212 36 210 0.0 0.0 0.00 0.00 0.00 38 1008.2
20260905233707 36 213 0.0 0.0 0.00 0.00 0.00 38 1008.2
20260905233206 36 214 0.0 0.0 0.00 0.00 0.00 38 1008.2
20260905232701 36 222 0.0 0.0 0.00 0.00 0.00 37 1008.2
20260905232157 36 220 0.0 0.0 0.00 0.00 0.00 37 1008.2
20260905231653 36 216 0.0 0.0 0.00 0.00 0.00 37 1008.2
20260905231148 37 176 0.0 0.0 0.00 0.00 0.00 37 1008.2
20260905230644 37 208 0.0 0.0 0.00 0.00 0.00 37 1008.2
20260905230137 37 251 0.0 0.0 0.00 0.00 0.00 37 1008.2
20260905225637 37 57 0.0 0.0 0.00 0.00 0.00 37 1007.9
20260905225136 37 204 0.0 0.0 0.00 0.00 0.00 37 1007.9
20260905224636 37 210 0.0 0.0 0.00 0.00 0.00 37 1008.2
20260905224135 37 216 0.0 0.0 0.00 0.00 0.00 37 1008.2
20260905223633 37 246 0.0 0.0 0.00 0.00 0.00 37 1007.9
20260905223129 37 264 0.0 0.0 0.00 0.00 0.00 37 1007.9
20260905222625 35 204 0.0 0.0 0.00 0.00 0.00 37 1008.2
20260905222119 34 214 0.0 0.0 0.00 0.00 0.00 37 1008.2